SHIJIAN-6 02A (SJ-6 02A)

Last updated on Fri Sep 11 2026 00:03:31 GMT+0000 (Coordinated Universal Time)

1 29505U 06046A 26253.55628453 .00002877 00000+0 14591-3 0 9999 2 29505 97.6300 295.2832 0002732 168.7871 191.3424 15.17765002 85215
UTC large
Height (km)
Speed (km/s)
/
Latitude / Longitude
Inclination (degrees)
Orbital Period (minutes)
Azimuth
Elevation
Range (km)
Doppler Factor

Next 0 passes for location: London (51.5072 / 0.1276)

No passes found over London.
SHIJIAN-6 02A (SJ-6 02A)